Location: Dugenta
(41.1333°N, 14.4500°E)
Time: 14:54:03
(UTC+00:00)

Cosmos 2360 Rocket - Pass Details

Date: 03 March 2021
Orbit: 833 x 846 km, 71.0° (Epoch: 21 April)

Event Time Altitude Azimuth Distance (km) Brightness Sun altitude
Rises 18:35:49 0° 216° (SW) 3,374 5.7 -19.6°
Reaches altitude 10° 18:38:18 10° 221° (SW) 2,445 5.0 -20.1°
Maximum altitude 18:43:47 54° 298° (WNW) 1,020 2.9 -21.1°
Drops below altitude 10° 18:49:19 10° 15° (NNE) 2,469 4.6 -22.1°
Sets 18:51:51 0° 20° (NNE) 3,409 5.3 -22.6°
